This is the latest recevied weather packets stored in our database for station/object IZ6EGX-13. If no packets are shown the sender has not sent any weather packets the latest 1 day(s).
| Time | Temp. | Humidity | Pressure | Rain* | Wind** | Luminosity | Snow |
|---|---|---|---|---|---|---|---|
| 1777991189 | 17.22° C | 82% | 1015.1 hPa | 0 mm | 0.89 m/s, 111° | - | - |
| 1777990589 | 17.22° C | 82% | 1015.2 hPa | 0 mm | 1.79 m/s, 91° | - | - |
| 1777989989 | 16.67° C | 82% | 1015.3 hPa | 0 mm | 1.79 m/s, 71° | - | - |
| 1777989389 | 16.67° C | 82% | 1015.4 hPa | 0 mm | 1.34 m/s, 88° | - | - |
| 1777988789 | 16.67° C | 82% | 1015.6 hPa | 0 mm | 1.34 m/s, 87° | - | - |
| 1777988189 | 16.11° C | 84% | 1015.7 hPa | 0 mm | 0.89 m/s, 81° | - | - |
| 1777987589 | 16.11° C | 84% | 1015.8 hPa | 0 mm | 1.34 m/s, 79° | - | - |
| 1777986989 | 16.11° C | 83% | 1015.7 hPa | 0 mm | 1.79 m/s, 79° | - | - |
| 1777986389 | 16.67° C | 82% | 1015.7 hPa | 0 mm | 1.79 m/s, 89° | - | - |
| 1777985789 | 16.67° C | 82% | 1015.8 hPa | 0 mm | 1.34 m/s, 100° | - | - |
| 1777985189 | 16.67° C | 80% | 1015.9 hPa | 0 mm | 1.34 m/s, 99° | - | - |
| 1777984589 | 16.67° C | 79% | 1015.7 hPa | 0 mm | 1.79 m/s, 75° | - | - |
| 1777983989 | 16.67° C | 75% | 1015.7 hPa | 0 mm | 1.34 m/s, 87° | - | - |
| 1777983389 | 16.67° C | 74% | 1015.7 hPa | 0 mm | 1.79 m/s, 102° | - | - |
| 1777982789 | 16.67° C | 75% | 1015.7 hPa | 0 mm | 1.79 m/s, 89° | - | - |
| 1777982189 | 17.22° C | 73% | 1015.6 hPa | 0 mm | 1.79 m/s, 91° | - | - |
| 1777981589 | 17.22° C | 70% | 1015.7 hPa | 0 mm | 0.89 m/s, 89° | - | - |
| 1777980989 | 17.22° C | 71% | 1015.7 hPa | 0 mm | 1.79 m/s, 90° | - | - |
| 1777980389 | 17.22° C | 69% | 1015.6 hPa | 0 mm | 1.79 m/s, 91° | - | - |
| 1777979789 | 17.78° C | 68% | 1015.7 hPa | 0 mm | 1.34 m/s, 96° | - | - |
| 1777979189 | 17.78° C | 70% | 1015.6 hPa | 0 mm | 1.34 m/s, 91° | - | - |
| 1777978589 | 17.78° C | 68% | 1015.5 hPa | 0 mm | 1.34 m/s, 108° | - | - |
| 1777977989 | 17.78° C | 68% | 1015.4 hPa | 0 mm | 1.34 m/s, 110° | - | - |
| 1777977389 | 18.33° C | 68% | 1015.5 hPa | 0 mm | 1.34 m/s, 89° | - | - |
| 1777976789 | 17.78° C | 73% | 1015.5 hPa | 0 mm | 0.89 m/s, 90° | - | - |
* Rain latest hour (hover to see other rain measurements)
** Current wind speed in m/s (hover to see current wind gust speed)